Location: Unspecified
(52.4292°N, 19.3359°E)
Time: 15:56:41
(UTC+02:00)

Transit 2A Rocket - Pass Details

Date: 26 May 2024
Orbit: 583 x 910 km, 66.7° (Epoch: 14 June)

Event Time Altitude Azimuth Distance (km) Brightness Sun altitude
Rises 06:00:25 0° 261° (W) 3,104 7.5 10.9°
Reaches altitude 10° 06:02:58 10° 273° (W) 2,243 6.9 11.3°
Maximum altitude 06:07:26 29° 333° (NNW) 1,414 6.4 11.9°
Drops below altitude 10° 06:12:17 10° 32° (NNE) 2,441 8.6 12.6°
Sets 06:15:11 0° 44° (NE) 3,428 9.5 13.1°
